Visibility
15.0 15.0 15.0 15.0 15.0 15.0 15.0 15.0 15.0 15.0 15.0 15.0 15.0 15.0 15.0 15.0 15.0 15.0 15.0 15.0 15.0 15.0 15.0 6.7 9.6 12.9 13.8 15.0 15.0 15.0 14.9 15.0 15.0 15.0 15.0 15.0 15.0 15.0 15.0 15.0 15.0 15.0 15.0 15.0
15.0 15.0 15.0 15.0 15.0 15.0 15.0 15.0 15.0 15.0 15.0 15.0 15.0 15.0 15.0 15.0 15.0 15.0 15.0 15.0 15.0 15.0 15.0 15.0 10.0 8.5 7.2 13.4 14.1 15.0 15.0 15.0 15.0 15.0 15.0 15.0 15.0 15.0 15.0 15.0 15.0 15.0 15.0 15.0
15.0 15.0 15.0 15.0 15.0 15.0 15.0 15.0 15.0 15.0 15.0 15.0 15.0 15.0 15.0 15.0 15.0 15.0 15.0 15.0 15.0 15.0 15.0 15.0 15.0 13.8 15.0 13.6 15.0 15.0 15.0 15.0 15.0 15.0 15.0 15.0 15.0 15.0 15.0 15.0 15.0 15.0 15.0 15.0
4.7 15.0 5.3 15.0 15.0 15.0 15.0 15.0 15.0 15.0 15.0 15.0 15.0 15.0 15.0 15.0 15.0 15.0 15.0 15.0 15.0 15.0 15.0 15.0 12.7 11.2 15.0 15.0 15.0 15.0 15.0 15.0 15.0 15.0 15.0 15.0 15.0 15.0 15.0 15.0 15.0 15.0 15.0 15.0
1.2 13.6 14.6 15.0 15.0 15.0 15.0 15.0 15.0 15.0 15.0 15.0 15.0 15.0 15.0 15.0 15.0 15.0 15.0 15.0 15.0 15.0 15.0 15.0 13.8 9.1 10.9 15.0 15.0 15.0 13.0 15.0 8.2 5.6 9.7 15.0 15.0 15.0 15.0 15.0 15.0 15.0 15.0 15.0
13.7 0.1 3.7 15.0 15.0 15.0 15.0 15.0 15.0 15.0 15.0 15.0 15.0 15.0 15.0 15.0 15.0 15.0 15.0 15.0 15.0 15.0 15.0 15.0 15.0 14.8 15.0 15.0 14.6 15.0 15.0 15.0 15.0 15.0 15.0 15.0 15.0 15.0 15.0 15.0 15.0 15.0 15.0 15.0
6.0 0.4 6.9 15.0 15.0 15.0 15.0 15.0 15.0 15.0 15.0 15.0 15.0 15.0 15.0 15.0 15.0 15.0 15.0 15.0 15.0 11.2 14.8 15.0 15.0 15.0 15.0 12.9 15.0 15.0 15.0 15.0 15.0 15.0 15.0 15.0 15.0 15.0 15.0 15.0 15.0 15.0 15.0 15.0
15.0 4.5 0.2 15.0 15.0 15.0 15.0 15.0 15.0 15.0 15.0 15.0 15.0 15.0 15.0 15.0 15.0 15.0 15.0 15.0 15.0 15.0 4.9 7.5 8.7 7.8 14.0 15.0 15.0 14.5 13.6 11.0 14.6 15.0 15.0 9.5 15.0 15.0 15.0 15.0 15.0 15.0 15.0 15.0
6.8 15.0 15.0 15.0 15.0 15.0 15.0 15.0 15.0 15.0 15.0 15.0 15.0 15.0 15.0 15.0 15.0 15.0 15.0 15.0 15.0 15.0 5.8 3.5 5.8 15.0 9.6 15.0 13.9 5.1 15.0 9.9 9.4 14.3 14.7 15.0 15.0 15.0 15.0 15.0 15.0 7.8 12.6 15.0
15.0 15.0 15.0 15.0 15.0 15.0 15.0 15.0 15.0 15.0 15.0 15.0 15.0 15.0 15.0 15.0 15.0 15.0 15.0 13.0 15.0 4.4 0.1 0.1 3.3 4.1 0.1 0.2 0.1 0.6 2.0 5.1 8.9 15.0 15.0 15.0 15.0 15.0 15.0 12.5 15.0 15.0 13.3 8.4
15.0 15.0 15.0 15.0 15.0 15.0 15.0 15.0 15.0 15.0 15.0 15.0 15.0 15.0 15.0 15.0 15.0 15.0 15.0 0.1 0.1 0.0 0.0 0.0 0.0 0.0 0.0 0.0 1.8 4.0 2.9 14.8 15.0 15.0 15.0 15.0 15.0 13.7 1.5 4.3 13.4 10.0 11.6 8.9
15.0 15.0 15.0 15.0 15.0 15.0 15.0 15.0 15.0 15.0 15.0 15.0 15.0 15.0 15.0 15.0 15.0 15.0 1.9 0.2 0.1 0.2 0.1 0.0 0.0 0.0 0.1 3.5 13.7 15.0 15.0 15.0 15.0 15.0 15.0 15.0 15.0 15.0 15.0 15.0 15.0 15.0 15.0 15.0
9.0 15.0 15.0 15.0 15.0 15.0 15.0 15.0 15.0 15.0 15.0 15.0 15.0 15.0 15.0 1.8 6.2 0.8 0.1 0.7 0.7 0.5 0.2 0.1 0.3 1.5 15.0 15.0 15.0 15.0 15.0 15.0 15.0 15.0 15.0 15.0 15.0 15.0 8.5 15.0 15.0 15.0 15.0 15.0
15.0 15.0 5.6 12.1 15.0 15.0 15.0 15.0 15.0 15.0 15.0 15.0 15.0 15.0 12.4 0.1 0.2 0.1 0.1 0.1 0.1 0.1 0.1 0.3 0.5 1.3 9.5 15.0 15.0 15.0 15.0 15.0 15.0 12.1 15.0 15.0 15.0 15.0 15.0 15.0 15.0 15.0 15.0 15.0
14.8 6.4 2.1 6.6 7.1 10.8 15.0 15.0 15.0 15.0 15.0 1.0 8.9 3.7 4.4 11.6 0.3 0.1 0.1 0.1 0.1 0.1 0.1 0.4 0.7 3.2 3.3 14.0 15.0 15.0 15.0 15.0 15.0 15.0 15.0 15.0 15.0 15.0 15.0 15.0 15.0 15.0 15.0 15.0
0.2 2.7 0.2 0.0 0.0 0.1 15.0 15.0 15.0 6.0 0.1 0.0 0.1 3.5 0.7 0.2 0.1 0.1 0.1 0.1 0.1 0.1 0.4 0.7 3.9 14.7 15.0 15.0 15.0 15.0 15.0 15.0 15.0 15.0 15.0 15.0 15.0 15.0 15.0 15.0 15.0 15.0 10.9 4.4
0.1 0.4 0.7 0.6 0.0 0.0 15.0 15.0 12.1 0.1 0.5 14.7 2.4 0.8 0.1 0.1 0.1 0.1 0.1 0.2 0.9 2.4 2.4 1.6 3.0 15.0 15.0 15.0 15.0 15.0 15.0 15.0 15.0 15.0 15.0 15.0 15.0 15.0 15.0 15.0 15.0 11.0 4.0 14.3
0.1 0.1 0.0 0.0 0.0 2.7 15.0 3.9 0.3 15.0 5.3 4.1 3.1 0.2 0.1 0.1 0.1 0.1 0.3 0.7 1.3 2.3 2.8 15.0 15.0 15.0 15.0 15.0 15.0 15.0 15.0 15.0 15.0 15.0 15.0 14.5 15.0 15.0 15.0 14.0 15.0 15.0 15.0 15.0
0.1 0.1 0.3 0.1 6.2 0.1 0.1 3.8 1.4 1.3 3.3 0.8 0.1 0.1 0.1 0.1 0.3 0.8 1.2 1.3 3.5 5.6 1.9 15.0 15.0 15.0 15.0 15.0 15.0 15.0 15.0 15.0 15.0 15.0 15.0 15.0 10.5 10.3 15.0 15.0 15.0 15.0 15.0 15.0
0.1 0.1 0.2 0.1 0.2 0.2 0.1 0.1 0.1 0.1 0.1 0.1 0.1 0.1 0.1 0.3 3.5 2.5 1.2 0.9 14.0 13.1 15.0 15.0 15.0 15.0 15.0 15.0 15.0 15.0 15.0 15.0 15.0 14.4 9.2 14.7 15.0 15.0 15.0 15.0 15.0 15.0 15.0 15.0
0.2 0.2 0.2 0.2 0.1 0.1 0.1 0.1 0.1 0.1 0.1 0.2 0.2 0.4 1.6 1.1 1.0 1.0 10.1 1.6 15.0 15.0 15.0 15.0 15.0 15.0 15.0 15.0 15.0 15.0 15.0 10.8 7.7 4.9 5.5 4.5 7.3 15.0 15.0 15.0 15.0 15.0 15.0 15.0
0.5 1.2 2.9 2.6 0.4 0.1 0.1 0.2 0.3 0.1 0.1 0.4 1.7 1.8 1.4 1.0 2.7 5.5 11.0 2.3 10.9 15.0 15.0 15.0 15.0 14.4 15.0 15.0 15.0 15.0 15.0 15.0 15.0 15.0 9.6 15.0 15.0 15.0 15.0 15.0 15.0 15.0 15.0 15.0
0.5 0.2 0.2 0.2 1.2 0.1 0.1 0.2 0.7 10.6 13.1 12.6 10.8 12.0 15.0 15.0 15.0 8.8 0.7 9.4 15.0 15.0 15.0 10.1 10.9 12.4 15.0 15.0 15.0 15.0 15.0 8.9 10.6 9.5 15.0 12.7 15.0 12.3 15.0 15.0 15.0 15.0 15.0 15.0
15.0 15.0 15.0 15.0 15.0 15.0 15.0 15.0 15.0 14.6 13.3 15.0 15.0 15.0 15.0 2.5 0.9 4.2 3.4 5.2 4.6 15.0 14.7 9.3 8.8 11.4 9.7 11.3 6.1 4.1 4.5 5.3 6.0 4.6 14.4 8.0 13.5 15.0 15.0 10.0 15.0 15.0 15.0 15.0
15.0 15.0 15.0 15.0 15.0 15.0 15.0 15.0 15.0 15.0 15.0 15.0 15.0 15.0 15.0 15.0 5.0 0.8 6.4 7.5 15.0 15.0 7.7 7.1 13.5 5.7 13.1 5.0 4.9 4.0 3.4 3.9 3.9 5.0 4.7 4.1 4.1 4.1 4.5 14.6 15.0 15.0 15.0 15.0
15.0 15.0 15.0 15.0 15.0 15.0 15.0 15.0 12.5 15.0 15.0 2.1 1.3 1.6 1.5 2.4 3.7 6.2 5.2 7.6 11.6 11.1 6.9 4.1 4.1 4.1 4.2 13.5 15.0 13.9 15.0 10.1 10.6 5.8 8.5 4.6 5.3 6.3 7.2 14.4 15.0 15.0 15.0 15.0
15.0 15.0 15.0 15.0 15.0 15.0 15.0 15.0 14.7 7.1 15.0 15.0 1.1 1.2 1.7 1.9 3.6 4.6 4.1 4.3 3.5 3.1 3.4 4.0 4.1 5.3 15.0 15.0 6.4 6.9 14.1 15.0 8.6 15.0 6.2 4.1 4.1 4.1 4.1 4.1 5.1 14.0 15.0 15.0